This is the latest recevied weather packets stored in our database for station/object NC4M. If no packets are shown the sender has not sent any weather packets the latest 10 day(s).
| Time | Temp. | Humidity | Pressure | Rain* | Wind** | Luminosity | Snow |
|---|---|---|---|---|---|---|---|
| 1777509198 | 13.89° C | 58% | 1017.7 hPa | 0 mm | - | 11 W/m² | - |
| 1777508895 | 13.89° C | 58% | 1017.5 hPa | 0 mm | - | 14 W/m² | - |
| 1777508592 | 14.44° C | 58% | 1017.5 hPa | 0 mm | - | 17 W/m² | - |
| 1777508289 | 14.44° C | 59% | 1017.3 hPa | 0 mm | - | 22 W/m² | - |
| 1777507986 | 14.44° C | 55% | 1017.1 hPa | 0 mm | - | 23 W/m² | - |
| 1777507683 | 14.44° C | 57% | 1017.4 hPa | 0 mm | - | 25 W/m² | - |
| 1777507380 | 15° C | 53% | 1017.3 hPa | 0 mm | - | 27 W/m² | - |
| 1777507077 | 15° C | 56% | 1017.4 hPa | 0 mm | - | 35 W/m² | - |
| 1777506775 | 15° C | 51% | 1017.5 hPa | 0 mm | - | 32 W/m² | - |
| 1777506470 | 15° C | 51% | 1017.3 hPa | 0 mm | - | 31 W/m² | - |
| 1777506166 | 15.56° C | 50% | 1017.4 hPa | 0 mm | - | 36 W/m² | - |
| 1777505863 | 15.56° C | 52% | 1017 hPa | 0 mm | - | 48 W/m² | - |
| 1777505559 | 15.56° C | 53% | 1017.3 hPa | 0 mm | - | 42 W/m² | - |
| 1777505257 | 15.56° C | 54% | 1017 hPa | 0 mm | - | 54 W/m² | - |
| 1777504953 | 15.56° C | 52% | 1016.9 hPa | 0 mm | - | 65 W/m² | - |
| 1777504650 | 15.56° C | 50% | 1016.8 hPa | 0 mm | - | 51 W/m² | - |
| 1777504347 | 15.56° C | 51% | 1016.8 hPa | 0 mm | - | 69 W/m² | - |
| 1777504046 | 16.11° C | 51% | 1016.7 hPa | 0 mm | - | 54 W/m² | - |
| 1777503744 | 16.11° C | 52% | 1016.6 hPa | 0 mm | - | 47 W/m² | - |
| 1777503441 | 16.11° C | 50% | 1016.8 hPa | 0 mm | - | 49 W/m² | - |
| 1777503136 | 16.11° C | 51% | 1016.6 hPa | 0 mm | - | 53 W/m² | - |
| 1777502834 | 16.11° C | 49% | 1016.7 hPa | 0 mm | - | 71 W/m² | - |
| 1777502531 | 16.11° C | 48% | 1016.8 hPa | 0 mm | - | 90 W/m² | - |
| 1777502228 | 16.11° C | 49% | 1016.8 hPa | 0 mm | - | 97 W/m² | - |
| 1777501925 | 16.67° C | 48% | 1016.9 hPa | 0 mm | - | 92 W/m² | - |
* Rain latest hour (hover to see other rain measurements)
** Current wind speed in m/s (hover to see current wind gust speed)